[TLELIST] Archives

 

[list_settings.list_name] Current TLEs

April 18th 2013 PDT

HST 1 20580U 90037B 13107.72940891 .00001584 00000-0 10118-3 0 2193 2 20580 028.4702 309.1211 0003456 063.1635 029.3970 15.03482263 60582 ISS (ZARYA) 1 25544U 98067A 13108.15562633 .00008927 00000-0 15103-3 0 6305 2 25544 051.6481 046.2255 0010597 153.3089 352.6323 15.52345674825384 CXO 1 25867U 99040B 13109.72997498 .00000061 00000-0 00000+0 0 8905 2 25867 075.0545 343.1616 8607626 277.6918 359.8390 00.37798984 10312 ____________________________________________________________________ These 2-Line ...Continue Reading

[list_settings.list_name] Current TLEs

April 17th 2013 PDT

HST 1 20580U 90037B 13106.00828478 .00001839 00000-0 11952-3 0 2188 2 20580 028.4707 320.4068 0003510 047.2241 071.3355 15.03476606 60331 ISS (ZARYA) 1 25544U 98067A 13107.37349396 .00009322 00000-0 15744-3 0 6252 2 25544 051.6477 050.1154 0010637 151.2885 300.8813 15.52332431825260 CXO 1 25867U 99040B 13109.72997498 .00000061 00000-0 00000+0 0 8905 2 25867 075.0545 343.1616 8607626 277.6918 359.8390 00.37798984 10312 ____________________________________________________________________ These 2-Line ...Continue Reading

[list_settings.list_name] Current TLEs

April 16th 2013 PDT

HST 1 20580U 90037B 13106.00828478 .00001839 00000-0 11952-3 0 2188 2 20580 028.4707 320.4068 0003510 047.2241 071.3355 15.03476606 60331 ISS (ZARYA) 1 25544U 98067A 13106.35177598 .00010071 00000-0 16957-3 0 6207 2 25544 051.6475 055.1952 0010643 147.8662 350.7999 15.52314394825100 CXO 1 25867U 99040B 13107.08514935 -.00000001 00000-0 00000+0 0 8896 2 25867 075.0279 343.3318 8610691 277.7192 359.7580 00.37800548 10307 ____________________________________________________________________ These 2-Line ...Continue Reading

[list_settings.list_name] Current TLEs

April 15th 2013 PDT

HST 1 20580U 90037B 13104.80999891 .00002183 00000-0 14416-3 0 2172 2 20580 028.4710 328.2603 0003532 035.5872 064.4493 15.03473640 60140 ISS (ZARYA) 1 25544U 98067A 13105.44203624 .00010715 00000-0 18003-3 0 6159 2 25544 051.6479 059.7180 0010583 142.9821 308.4226 15.52296262824962 CXO 1 25867U 99040B 13107.08514935 -.00000001 00000-0 00000+0 0 8896 2 25867 075.0279 343.3318 8610691 277.7192 359.7580 00.37800548 10307 ____________________________________________________________________ These 2-Line ...Continue Reading

[list_settings.list_name] Current TLEs

April 14th 2013 PDT

HST 1 20580U 90037B 13103.80976176 .00002961 00000-0 19990-3 0 2167 2 20580 028.4711 334.8143 0003393 026.0764 049.5079 15.03471949 59998 ISS (ZARYA) 1 25544U 98067A 13104.47796494 .00014893 00000-0 24724-3 0 6106 2 25544 051.6470 064.5082 0010673 140.0712 320.3253 15.52279772824810 CXO 1 25867U 99040B 13107.08514935 -.00000001 00000-0 00000+0 0 8896 2 25867 075.0279 343.3318 8610691 277.7192 359.7580 00.37800548 10307 ____________________________________________________________________ These 2-Line ...Continue Reading

[list_settings.list_name] Current TLEs

April 13th 2013 PDT

HST 1 20580U 90037B 13102.03079683 .00003968 00000-0 27212-3 0 2151 2 20580 028.4710 346.4727 0003293 007.5726 140.4396 15.03458407 59734 ISS (ZARYA) 1 25544U 98067A 13103.39020928 .00015298 00000-0 25402-3 0 6034 2 25544 051.6463 069.9155 0010732 136.2336 001.6043 15.52247480824645 CXO 1 25867U 99040B 13104.44065627 -.00000142 00000-0 00000+0 0 8887 2 25867 075.0053 343.5275 8612629 277.7304 359.7310 00.37801866 10292 ____________________________________________________________________ These 2-Line ...Continue Reading

[list_settings.list_name] Current TLEs

April 12th 2013 PDT

HST 1 20580U 90037B 13102.03079683 .00003968 00000-0 27212-3 0 2151 2 20580 028.4710 346.4727 0003293 007.5726 140.4396 15.03458407 59734 ISS (ZARYA) 1 25544U 98067A 13102.42476179 .00015357 00000-0 25526-3 0 5964 2 25544 051.6459 074.7121 0010780 133.3240 005.9907 15.52217069824491 CXO 1 25867U 99040B 13104.44065627 -.00000142 00000-0 00000+0 0 8887 2 25867 075.0053 343.5275 8612629 277.7304 359.7310 00.37801866 10292 ____________________________________________________________________ These 2-Line ...Continue Reading

[list_settings.list_name] Current TLEs

April 11th 2013 PDT

HST 1 20580U 90037B 13100.82303510 .00003733 00000-0 25534-3 0 2149 2 20580 028.4709 354.3875 0003182 356.5929 081.5880 15.03449688 59546 ISS (ZARYA) 1 25544U 98067A 13101.45985325 .00014953 00000-0 24902-3 0 5906 2 25544 051.6458 079.5083 0010827 129.6338 014.2730 15.52185302824343 CXO 1 25867U 99040B 13101.79538760 -.00000272 00000-0 00000+0 0 8878 2 25867 074.9962 343.6839 8613838 277.7575 359.5841 00.37802100 10287 ____________________________________________________________________ These 2-Line ...Continue Reading

[list_settings.list_name] Current TLEs

April 10th 2013 PDT

HST 1 20580U 90037B 13099.17217667 .00002729 00000-0 18339-3 0 2139 2 20580 028.4710 005.2063 0003217 338.3448 147.0832 15.03445303 59301 ISS (ZARYA) 1 25544U 98067A 13100.43044068 .00014039 00000-0 23459-3 0 5825 2 25544 051.6455 084.6230 0010846 125.7637 022.1729 15.52150840824188 CXO 1 25867U 99040B 13101.79760769 -.00000272 00000-0 00000+0 0 8863 2 25867 074.9965 343.6839 8613835 277.7579 359.8843 00.37801412 10281 ____________________________________________________________________ These 2-Line ...Continue Reading

[list_settings.list_name] Current TLEs

April 9th 2013 PDT

HST 1 20580U 90037B 13098.11432291 .00002609 00000-0 17484-3 0 2120 2 20580 028.4711 012.1383 0003156 327.1063 181.5147 15.03439690 59141 ISS (ZARYA) 1 25544U 98067A 13099.40073868 .00013149 00000-0 22049-3 0 5767 2 25544 051.6458 089.7418 0010836 122.5109 027.9545 15.52117509824020 CXO 1 25867U 99040B 13101.79760769 -.00000272 00000-0 00000+0 0 8863 2 25867 074.9965 343.6839 8613835 277.7579 359.8843 00.37801412 10281 ____________________________________________________________________ These 2-Line ...Continue Reading
  • This mailing list is a public mailing list - anyone may join or leave, at any time.
  • This mailing list is announce-only.

International Space Station (ISS) / Hubble Space Telescope (HST) / Chandra X-Ray Observatory Orbital Data via EMAIL

Privacy Policy:

Private list